Starlink 30706

operational
NORAD ID: 57947 Int'l Des: 2023-148 Owner: SPXS Country: US Constellation: starlink
LEOCIRCULAR

About Starlink 30706

Description loading...

Live Position

Loading 3D Globe...

Upcoming Passes

Altitude History

Altitude vs Time

uPlot chart will show altitude changes over time

Two-Line Element Set

1 57947U 23148N 25352.46114501 .00001492 00000-0 62495-4 0 9995
2 57947 53.1620 41.7339 0001124 96.3568 263.7561 15.30192152125987
Epoch: Dec 18, 2025 • Age: 23 hours

Current Status

Altitude 475.4 km
Velocity 7.63 km/s
Sub-Earth Point 21.35°N, 33°W
Launch Date Sep 25, 2023
Age 2.2 years
Type internet

Technical Details

Classification Payload
Mass 730.00 kg
Dry Mass 700.00 kg
Total Mass 730.00 kg
Length 0.30 m
Diameter 4.10 m
Span 29.00 m
Shape Box + pan
Manufacturer SPXS
Bus Type Starlink V2M
Phase Status In Orbit
Owner/State SPXS/US

Large Constellations

Loading constellations...